Hourly Weather Roundup
Issued by NWS Central Illinois

Home | Current Version | Previous Version | Text Only | Print | Product List | Glossary On
Versions: 1 2 3 4 5 6 7 8 9 10 11 12 13 14 15 16 17 18 19 20 21 22 23 24 25 26 27 28 29 30 31 32 33 34 35 36 37 38 39 40 41 42 43 44 45 46 47 48 49 50
000
NZUS43 KILX 231510
HWRILX

AREA WEATHER ROUNDUP
NATIONAL WEATHER SERVICE, LINCOLN IL
900 AM CST THU FEB 23 2017


CITY           SKY/WX    TMP DP  RH WIND       PRES   REMARKS
BLOOMINGTON    SUNNY     49  46  90 N15       29.77S
CHAMPAIGN      FOG       53  51  93 CALM      29.76S VSB 1/8
DECATUR        FOG       51  50  96 E3        29.75S VSB 1/4
EFFINGHAM      CLOUDY    57  57 100 SE7       29.77F FOG
FLORA          MOSUNNY   59  58  97 S12       29.77F
GALESBURG      CLOUDY    44  41  91 N7        29.81R
JACKSONVILLE   PTSUNNY   49  48  93 N7        29.76R
LACON          MOSUNNY   47  45  92 N5        29.79R
LAWRENCEVILLE  CLOUDY    60  57  89 S15       29.79R
LITCHFIELD     CLOUDY    52  52 100 SE6       29.73S FOG
$$


CITY           SKY/WX    TMP DP  RH WIND       PRES   REMARKS
LINCOLN        MOSUNNY   51  51 100 N7        29.75F
MACOMB         CLOUDY    43  42  97 N13       29.81R
MATTOON        CLOUDY    55  55 100 S8        29.75F FOG
MT CARMEL AP   CLOUDY    59  55  88 S12       29.79S
OLNEY-NOBLE AP MOSUNNY   59  59 100 S12       29.78S
PARIS          CLOUDY    56  56  98 SW7       29.78S FOG
PEORIA         MOSUNNY   48  45  89 N9        29.77S
PONTIAC        SUNNY     51  48  90 NE10      29.78F
RANTOUL        SUNNY     54  53  96 CALM      29.76R
SPRINGFIELD    CLOUDY    50  48  93 NE6       29.76R FOG
TAYLORVILLE    FOG       52  52 100 CALM      29.75R VSB 1
$$

...REGIONAL REPORTS...


CITY           SKY/WX    TMP DP  RH WIND       PRES   REMARKS
CHICAGO O`HARE MOSUNNY   51  41  68 NE12      29.77R
KANKAKEE       MOSUNNY   50  49  97 CALM      29.80R
MOLINE         PTSUNNY  N/A N/A N/A N7        29.80R
MOUNT STERLING CLOUDY    45  44  95 N13       29.77S
MOUNT VERNON   PTSUNNY   58  56  93 S7        29.77S
PITTSFIELD     PTSUNNY   49  46  90 NE6       29.77S
QUINCY         CLOUDY    45  43  93 NE15      29.76F FOG
ROCKFORD       PTSUNNY   48  39  71 N18       29.79S
$$


CITY           SKY/WX    TMP DP  RH WIND       PRES   REMARKS
BURLINGTON     CLOUDY    44  41  89 NE8       29.79F
CEDAR RAPIDS   PTSUNNY   42  38  85 N9        29.79R
DES MOINES     CLOUDY    41  36  82 NE15      29.82F WCI  33
KIRKSVILLE     CLOUDY    41  39  93 N13       29.80S WCI  34
OTTUMWA        CLOUDY    43  39  86 NE10      29.80S
ST LOUIS       CLOUDY    60  55  83 CALM      29.74R
$$


CITY           SKY/WX    TMP DP  RH WIND       PRES   REMARKS
TERRE HAUTE    MOSUNNY   60  55  83 SW10      29.77F
EVANSVILLE     CLOUDY    63  56  78 S8        29.81S
INDIANAPOLIS   PTSUNNY   60  56  86 SW10      29.78S
LAFAYETTE      CLOUDY    52  52 100 CALM      29.76S FOG
MADISON        CLOUDY    41  36  82 N9        29.80S
MILWAUKEE      CLOUDY    42  38  85 N14       29.80R FOG     WCI  35
$$





USA.gov is the U.S. government's official web portal to all federal, state and local government web resources and services.